Regional Weather Roundup
Issued by NWS Sioux Falls, SD

Home | Current Version | Previous Version | Graphics & Text | Print | Product List | Glossary Off
Versions: 1 2 3 4 5 6 7 8 9 10 11 12 13 14 15 16 17 18 19 20 21 22 23 24 25 26 27 28 29 30 31 32 33 34 35 36 37 38 39 40 41 42 43 44 45 46 47 48 49 50

000
ASUS43 KFSD 192110
RWRFSD

WEATHER ROUNDUP FOR SE SOUTH DAKOTA/SW MINNESOTA/NW IOWA
NATIONAL WEATHER SERVICE SIOUX FALLS SD
400 PM CDT SAT AUG 19 2017

NOTE: "FAIR" INDICATES FEW OR NO CLOUDS BELOW 12,000 FEET WITH NO
SIGNIFICANT WEATHER AND OR OBSTRUCTIONS TO VISIBILITY.


SDZ038>040-050-052>070-192200-
SOUTHEAST SOUTH DAKOTA

CITY           SKY/WX    TMP DP  RH WIND       PRES   REMARKS
BROOKINGS      SUNNY     78  63  59 SE13      29.88F
CHAMBERLAIN    SUNNY     89  67  49 SE13      29.80F
HURON          SUNNY     82  62  50 S15G24    29.81F
MADISON        FAIR      77  64  65 S14G20    29.88F
MITCHELL       SUNNY     83  61  47 SE16      29.82F
SIOUX FALLS    SUNNY     81  65  58 SE12      29.89F
WINNER         FAIR      91  64  40 SE16G22   29.79F
YANKTON        SUNNY     83  64  52 SE15      29.86F
$$

MNZ071-072-080-081-089-090-097-098-192200-
SOUTHWEST MINNESOTA

CITY           SKY/WX    TMP DP  RH WIND       PRES   REMARKS
FAIRMONT       MOSUNNY   78  65  63 MISG      29.93F
JACKSON        MOSUNNY   77  64  65 CALM      29.94F
LUVERNE        SUNNY     79  59  50 S8        29.90F
MARSHALL       SUNNY     80  63  55 S14       29.89F
MONTEVIDEO     SUNNY     82  64  54 S8        29.88F
PIPESTONE      SUNNY     79  63  57 S9        29.91F
REDWOOD FALLS  SUNNY     79  62  56 S12       29.89F
TRACY          SUNNY     79  65  62 S7        29.91F
WINDOM         SUNNY     79  61  53 S10       29.93S
WORTHINGTON    SUNNY     78  64  61 SE7       29.93F
$$

IAZ001>003-012>014-020>022-031-032-NEZ013-014-SDZ071-192200-
NORTHWEST IOWA

CITY           SKY/WX    TMP DP  RH WIND       PRES   REMARKS
CHEROKEE       SUNNY     82  64  54 S8        29.92F
DENISON        SUNNY     81  66  61 CALM      29.94S
ESTHERVILLE    MOSUNNY   77  67  71 SE8       29.93F
LE MARS        SUNNY     82  63  51 S13       29.90F
ORANGE CITY    SUNNY     82  64  54 SE6       29.92F
SHELDON        SUNNY     79  63  57 S9        29.91F
SIOUX CITY     SUNNY     82  64  54 S10       29.90F
SPENCER        SUNNY     81  63  54 VRB7      29.93F
STORM LAKE     SUNNY     79  66  65 S7        29.94S
$$

ABBREVIATIONS USED IN REMARKS
   TC - TEMPERATURE IN CELSIUS
  WCI - WIND CHILL INDEX
   HX - HEAT INDEX
  VSB - VISIBILITY





USA.gov is the U.S. government's official web portal to all federal, state and local government web resources and services.